Time,TemperatureF,DewpointF,PressureIn,WindDirection,WindDirectionDegrees,WindSpeedMPH,WindSpeedGustMPH,Humidity,HourlyPrecipIn,Conditions,Clouds,dailyrainin,SoftwareType,DateUTC
2013-03-31 00:07:00,37.4,27.0,30.05,ENE,63,0.0,-999.0,67,-99.99,,,0.00,weatherlink.com 1.10,2013-03-31 07:07:00,
2013-03-31 00:23:00,37.1,27.0,30.04,ENE,63,1.0,-999.0,68,-99.99,,,0.00,weatherlink.com 1.10,2013-03-31 07:23:00,
2013-03-31 00:38:00,37.0,28.0,30.04,ENE,62,2.0,-999.0,69,-99.99,,,0.00,weatherlink.com 1.10,2013-03-31 07:38:00,
2013-03-31 00:53:00,37.0,27.0,30.05,ENE,65,0.0,-999.0,68,-99.99,,,0.00,weatherlink.com 1.10,2013-03-31 07:53:00,
2013-03-31 01:08:00,36.6,27.0,30.04,ENE,64,0.0,-999.0,69,-99.99,,,0.00,weatherlink.com 1.10,2013-03-31 08:08:00,
2013-03-31 01:23:00,36.3,27.0,30.05,ENE,64,0.0,-999.0,70,-99.99,,,0.00,weatherlink.com 1.10,2013-03-31 08:23:00,
2013-03-31 01:38:00,35.9,27.0,30.03,ENE,65,1.0,-999.0,70,-99.99,,,0.00,weatherlink.com 1.10,2013-03-31 08:38:00,
2013-03-31 01:53:00,35.6,27.0,30.03,ENE,65,1.0,-999.0,71,-99.99,,,0.00,weatherlink.com 1.10,2013-03-31 08:53:00,
2013-03-31 02:08:00,35.8,27.0,30.03,ENE,64,0.0,-999.0,71,-99.99,,,0.00,weatherlink.com 1.10,2013-03-31 09:08:00,
2013-03-31 02:23:00,35.3,27.0,30.02,ENE,64,0.0,-999.0,72,-99.99,,,0.00,weatherlink.com 1.10,2013-03-31 09:23:00,
2013-03-31 02:38:00,34.9,27.0,30.02,ENE,64,0.0,-999.0,72,-99.99,,,0.00,weatherlink.com 1.10,2013-03-31 09:38:00,
2013-03-31 02:53:00,34.6,27.0,30.02,ENE,64,0.0,-999.0,73,-99.99,,,0.00,weatherlink.com 1.10,2013-03-31 09:53:00,
2013-03-31 03:08:00,34.1,27.0,30.02,ENE,64,0.0,-999.0,74,-99.99,,,0.00,weatherlink.com 1.10,2013-03-31 10:08:00,
2013-03-31 03:23:00,34.0,27.0,30.02,ENE,64,0.0,-999.0,74,-99.99,,,0.00,weatherlink.com 1.10,2013-03-31 10:23:00,
2013-03-31 03:40:00,33.7,27.0,30.01,ENE,64,1.0,-999.0,75,-99.99,,,0.00,weatherlink.com 1.10,2013-03-31 10:40:00,
2013-03-31 03:53:00,34.0,27.0,30.01,NE,42,0.0,-999.0,75,-99.99,,,0.00,weatherlink.com 1.10,2013-03-31 10:53:00,
2013-03-31 04:08:00,34.1,27.0,30.01,NE,42,0.0,-999.0,74,-99.99,,,0.00,weatherlink.com 1.10,2013-03-31 11:08:00,
2013-03-31 04:23:00,33.5,27.0,30.02,NE,42,0.0,-999.0,76,-99.99,,,0.00,weatherlink.com 1.10,2013-03-31 11:23:00,
2013-03-31 04:38:00,33.4,27.0,30.02,NE,42,0.0,-999.0,76,-99.99,,,0.00,weatherlink.com 1.10,2013-03-31 11:38:00,
2013-03-31 04:53:00,33.4,27.0,30.03,NE,42,0.0,-999.0,76,-99.99,,,0.00,weatherlink.com 1.10,2013-03-31 11:53:00,
2013-03-31 05:08:00,32.8,26.0,30.03,NE,42,0.0,-999.0,77,-99.99,,,0.00,weatherlink.com 1.10,2013-03-31 12:08:00,
2013-03-31 05:23:00,32.7,27.0,30.04,NE,42,1.0,-999.0,78,-99.99,,,0.00,weatherlink.com 1.10,2013-03-31 12:23:00,
2013-03-31 05:38:00,32.8,26.0,30.04,NE,42,0.0,-999.0,77,-99.99,,,0.00,weatherlink.com 1.10,2013-03-31 12:38:00,
2013-03-31 05:53:00,32.9,27.0,30.04,NE,42,0.0,-999.0,78,-99.99,,,0.00,weatherlink.com 1.10,2013-03-31 12:53:00,
2013-03-31 06:08:00,32.9,27.0,30.05,NE,42,1.0,-999.0,78,-99.99,,,0.00,weatherlink.com 1.10,2013-03-31 13:08:00,
2013-03-31 06:23:00,32.6,26.0,30.05,NE,42,0.0,-999.0,78,-99.99,,,0.00,weatherlink.com 1.10,2013-03-31 13:23:00,
2013-03-31 06:38:00,32.6,27.0,30.05,NNE,31,2.0,-999.0,79,-99.99,,,0.00,weatherlink.com 1.10,2013-03-31 13:38:00,
2013-03-31 06:53:00,33.9,27.0,30.05,North,360,2.0,-999.0,77,-99.99,,,0.00,weatherlink.com 1.10,2013-03-31 13:53:00,
2013-03-31 07:08:00,35.7,29.0,30.05,NNE,22,1.0,-999.0,75,-99.99,,,0.00,weatherlink.com 1.10,2013-03-31 14:08:00,
2013-03-31 07:23:00,39.0,30.0,30.05,NNE,22,0.0,-999.0,69,-99.99,,,0.00,weatherlink.com 1.10,2013-03-31 14:23:00,
2013-03-31 07:38:00,41.5,30.0,30.06,NNE,22,0.0,-999.0,65,-99.99,,,0.00,weatherlink.com 1.10,2013-03-31 14:38:00,
2013-03-31 07:53:00,44.2,32.0,30.05,NNE,22,0.0,-999.0,62,-99.99,,,0.00,weatherlink.com 1.10,2013-03-31 14:53:00,
2013-03-31 08:09:00,47.4,33.0,30.05,NNE,22,0.0,-999.0,58,-99.99,,,0.00,weatherlink.com 1.10,2013-03-31 15:09:00,
2013-03-31 08:24:00,50.0,35.0,30.04,NNE,22,0.0,-999.0,57,-99.99,,,0.00,weatherlink.com 1.10,2013-03-31 15:24:00,
2013-03-31 08:39:00,51.6,34.0,30.04,NNE,22,0.0,-999.0,51,-99.99,,,0.00,weatherlink.com 1.10,2013-03-31 15:39:00,
2013-03-31 08:54:00,53.4,33.0,30.04,South,177,0.0,-999.0,46,-99.99,,,0.00,weatherlink.com 1.10,2013-03-31 15:54:00,
2013-03-31 09:09:00,54.5,32.0,30.04,SW,224,0.0,-999.0,42,-99.99,,,0.00,weatherlink.com 1.10,2013-03-31 16:09:00,
2013-03-31 09:24:00,55.7,32.0,30.04,SSW,192,2.0,-999.0,41,-99.99,,,0.00,weatherlink.com 1.10,2013-03-31 16:24:00,
2013-03-31 09:39:00,56.6,32.0,30.04,SW,218,1.0,-999.0,39,-99.99,,,0.00,weatherlink.com 1.10,2013-03-31 16:39:00,
2013-03-31 09:53:00,57.5,31.0,30.04,SSW,213,2.0,-999.0,37,-99.99,,,0.00,weatherlink.com 1.10,2013-03-31 16:53:00,
2013-03-31 10:24:00,58.3,31.0,30.04,South,183,2.0,-999.0,35,-99.99,,,0.00,weatherlink.com 1.10,2013-03-31 17:24:00,
2013-03-31 10:39:00,58.0,30.0,30.04,SSW,205,0.0,-999.0,35,-99.99,,,0.00,weatherlink.com 1.10,2013-03-31 17:39:00,
2013-03-31 10:54:00,58.5,31.0,30.05,SSW,198,3.0,-999.0,35,-99.99,,,0.00,weatherlink.com 1.10,2013-03-31 17:54:00,
2013-03-31 11:09:00,59.6,31.0,30.05,West,272,0.0,-999.0,34,-99.99,,,0.00,weatherlink.com 1.10,2013-03-31 18:09:00,
2013-03-31 11:24:00,60.0,30.0,30.05,SW,219,2.0,-999.0,32,-99.99,,,0.00,weatherlink.com 1.10,2013-03-31 18:24:00,
2013-03-31 11:39:00,59.8,29.0,30.04,SW,234,3.0,-999.0,31,-99.99,,,0.00,weatherlink.com 1.10,2013-03-31 18:39:00,
2013-03-31 11:54:00,60.6,30.0,30.04,WSW,252,2.0,-999.0,32,-99.99,,,0.00,weatherlink.com 1.10,2013-03-31 18:54:00,
2013-03-31 12:09:00,61.0,30.0,30.04,SW,223,5.0,-999.0,31,-99.99,,,0.00,weatherlink.com 1.10,2013-03-31 19:09:00,
2013-03-31 12:24:00,61.1,28.0,30.03,WSW,258,1.0,-999.0,29,-99.99,,,0.00,weatherlink.com 1.10,2013-03-31 19:24:00,
2013-03-31 12:39:00,61.5,30.0,30.02,SSE,167,2.0,-999.0,30,-99.99,,,0.00,weatherlink.com 1.10,2013-03-31 19:39:00,
2013-03-31 12:54:00,62.2,29.0,30.02,SW,220,3.0,-999.0,29,-99.99,,,0.00,weatherlink.com 1.10,2013-03-31 19:54:00,
2013-03-31 13:09:00,62.2,30.0,30.01,WSW,256,3.0,-999.0,30,-99.99,,,0.00,weatherlink.com 1.10,2013-03-31 20:09:00,
2013-03-31 13:24:00,62.8,30.0,30.00,West,260,1.0,-999.0,29,-99.99,,,0.00,weatherlink.com 1.10,2013-03-31 20:24:00,
2013-03-31 13:39:00,63.1,29.0,29.99,SW,217,3.0,-999.0,28,-99.99,,,0.00,weatherlink.com 1.10,2013-03-31 20:39:00,
2013-03-31 13:54:00,63.3,29.0,29.98,SW,224,8.0,-999.0,28,-99.99,,,0.00,weatherlink.com 1.10,2013-03-31 20:54:00,
2013-03-31 14:09:00,64.0,30.0,29.98,WSW,242,2.0,-999.0,28,-99.99,,,0.00,weatherlink.com 1.10,2013-03-31 21:09:00,
2013-03-31 14:24:00,64.1,30.0,29.97,WSW,239,3.0,-999.0,28,-99.99,,,0.00,weatherlink.com 1.10,2013-03-31 21:24:00,
2013-03-31 14:39:00,64.1,31.0,29.96,SE,130,4.0,-999.0,29,-99.99,,,0.00,weatherlink.com 1.10,2013-03-31 21:39:00,
2013-03-31 15:10:00,64.8,29.0,29.95,SW,230,2.0,-999.0,26,-99.99,,,0.00,weatherlink.com 1.10,2013-03-31 22:10:00,
2013-03-31 15:25:00,64.7,29.0,29.94,SSW,200,1.0,-999.0,26,-99.99,,,0.00,weatherlink.com 1.10,2013-03-31 22:25:00,
2013-03-31 15:40:00,64.5,29.0,29.95,West,275,5.0,-999.0,26,-99.99,,,0.00,weatherlink.com 1.10,2013-03-31 22:40:00,
2013-03-31 15:55:00,64.4,29.0,29.94,SW,229,2.0,-999.0,26,-99.99,,,0.00,weatherlink.com 1.10,2013-03-31 22:55:00,
2013-03-31 16:10:00,63.2,29.0,29.94,West,267,0.0,-999.0,27,-99.99,,,0.00,weatherlink.com 1.10,2013-03-31 23:10:00,
2013-03-31 16:25:00,62.4,29.0,29.93,SSE,156,4.0,-999.0,28,-99.99,,,0.00,weatherlink.com 1.10,2013-03-31 23:25:00,
2013-03-31 16:55:00,62.9,28.0,29.93,South,189,4.0,-999.0,27,-99.99,,,0.00,weatherlink.com 1.10,2013-03-31 23:55:00,
2013-03-31 17:10:00,62.4,28.0,29.92,SW,225,3.0,-999.0,27,-99.99,,,0.00,weatherlink.com 1.10,2013-04-01 00:10:00,
2013-03-31 17:25:00,62.1,27.0,29.92,SW,229,5.0,-999.0,26,-99.99,,,0.00,weatherlink.com 1.10,2013-04-01 00:25:00,
2013-03-31 17:40:00,61.3,27.0,29.92,West,261,0.0,-999.0,27,-99.99,,,0.00,weatherlink.com 1.10,2013-04-01 00:40:00,
2013-03-31 17:55:00,60.5,26.0,29.92,South,178,1.0,-999.0,27,-99.99,,,0.00,weatherlink.com 1.10,2013-04-01 00:55:00,
2013-03-31 18:10:00,59.5,26.0,29.92,SSE,157,3.0,-999.0,28,-99.99,,,0.00,weatherlink.com 1.10,2013-04-01 01:10:00,
2013-03-31 18:25:00,58.1,26.0,29.93,South,182,4.0,-999.0,29,-99.99,,,0.00,weatherlink.com 1.10,2013-04-01 01:25:00,
2013-03-31 18:40:00,57.2,26.0,29.93,South,173,2.0,-999.0,30,-99.99,,,0.00,weatherlink.com 1.10,2013-04-01 01:40:00,
2013-03-31 18:55:00,56.2,26.0,29.93,SSW,213,1.0,-999.0,31,-99.99,,,0.00,weatherlink.com 1.10,2013-04-01 01:55:00,
2013-03-31 19:10:00,55.3,26.0,29.93,South,171,0.0,-999.0,32,-99.99,,,0.00,weatherlink.com 1.10,2013-04-01 02:10:00,
2013-03-31 19:25:00,54.5,26.0,29.93,SSW,198,1.0,-999.0,33,-99.99,,,0.00,weatherlink.com 1.10,2013-04-01 02:25:00,
2013-03-31 19:40:00,53.8,25.0,29.93,SW,224,2.0,-999.0,33,-99.99,,,0.00,weatherlink.com 1.10,2013-04-01 02:40:00,
2013-03-31 19:55:00,53.2,25.0,29.93,SSW,195,3.0,-999.0,34,-99.99,,,0.00,weatherlink.com 1.10,2013-04-01 02:55:00,
2013-03-31 20:10:00,52.6,25.0,29.94,SSW,196,0.0,-999.0,35,-99.99,,,0.00,weatherlink.com 1.10,2013-04-01 03:10:00,
2013-03-31 20:25:00,52.1,26.0,29.94,South,187,0.0,-999.0,37,-99.99,,,0.00,weatherlink.com 1.10,2013-04-01 03:25:00,
2013-03-31 20:40:00,51.3,26.0,29.94,South,187,0.0,-999.0,37,-99.99,,,0.00,weatherlink.com 1.10,2013-04-01 03:40:00,
2013-03-31 20:55:00,50.5,26.0,29.94,South,187,0.0,-999.0,38,-99.99,,,0.00,weatherlink.com 1.10,2013-04-01 03:55:00,
2013-03-31 21:10:00,50.1,26.0,29.94,SSE,159,0.0,-999.0,40,-99.99,,,0.00,weatherlink.com 1.10,2013-04-01 04:10:00,
2013-03-31 21:25:00,49.9,26.0,29.94,SSE,165,2.0,-999.0,40,-99.99,,,0.00,weatherlink.com 1.10,2013-04-01 04:25:00,
2013-03-31 21:40:00,49.6,26.0,29.95,SSE,157,0.0,-999.0,40,-99.99,,,0.00,weatherlink.com 1.10,2013-04-01 04:40:00,
2013-03-31 21:55:00,48.6,26.0,29.94,SSE,157,0.0,-999.0,42,-99.99,,,0.00,weatherlink.com 1.10,2013-04-01 04:55:00,
2013-03-31 22:10:00,46.5,27.0,29.94,SSE,157,0.0,-999.0,46,-99.99,,,0.00,weatherlink.com 1.10,2013-04-01 05:10:00,
2013-03-31 22:25:00,44.9,27.0,29.94,SSE,157,0.0,-999.0,50,-99.99,,,0.00,weatherlink.com 1.10,2013-04-01 05:25:00,
2013-03-31 22:40:00,43.6,27.0,29.94,SSE,157,0.0,-999.0,52,-99.99,,,0.00,weatherlink.com 1.10,2013-04-01 05:40:00,
2013-03-31 22:55:00,42.1,27.0,29.93,SSE,157,0.0,-999.0,55,-99.99,,,0.00,weatherlink.com 1.10,2013-04-01 05:55:00,
2013-03-31 23:10:00,41.1,26.0,29.93,SSE,157,0.0,-999.0,56,-99.99,,,0.00,weatherlink.com 1.10,2013-04-01 06:10:00,
2013-03-31 23:25:00,39.9,26.0,29.93,SSE,157,0.0,-999.0,58,-99.99,,,0.00,weatherlink.com 1.10,2013-04-01 06:25:00,
2013-03-31 23:40:00,39.2,26.0,29.93,SSE,157,0.0,-999.0,59,-99.99,,,0.00,weatherlink.com 1.10,2013-04-01 06:40:00,
2013-03-31 23:55:00,38.8,26.0,29.93,SSE,157,0.0,-999.0,60,-99.99,,,0.00,weatherlink.com 1.10,2013-04-01 06:55:00,